フルス彗星

C/2017 U2 ( Fuls )

English version
Home page
Updated on November 23, 2017

---------------------------------------------------------------------

・ プロフィール

発見日 2017年10月22日
発見光度 21.2等
発見者 D. C. Fuls (Mount Lemmon)

・ 軌道要素

Epoch 2017 Sept. 4.0 TT = JDT 2458000.5
T 2017 Aug. 29.46015 TT                                 MPCW
q   6.7018451            (2000.0)            P               Q
z  -0.0001686      Peri.  147.83338     +0.75637857     +0.41920943
 +/-0.0002039      Node   149.70700     -0.56259233     +0.02524127
e   1.0011297      Incl.   95.44002     +0.33373841     -0.90753861
From 40 observations 2017 Sept. 8-Oct. 28, mean residual 0".5.

・ 光度変化

        m1 = 8.5 + 5 logΔ + 10.0 log r

---------------------------------------------------------------------

軌道要素はM.P.E.C. 2017-V13に掲載されたものです。
光度グラフはComet for Windowsで作成したものです。

---------------------------------------------------------------------

Copyright(C) Seiichi Yoshida (comet@aerith.net). All rights reserved.